Location: Losili
(4.4086°N, 32.7049°E)
Time: 16:49:57
(UTC+00:00)

Ariane Rocket - Pass Details

Date: 18 September 2019
Orbit: 761 x 769 km, 98.8° (Epoch: 21 October)

Event Time Altitude Azimuth Distance (km) Brightness Sun altitude
Exits shadow 17:50:47 16° 199° (SSW) 1,925 5.2 -31.6°
Maximum altitude 17:54:18 35° 258° (WSW) 1,211 4.4 -32.4°
Drops below altitude 10° 17:58:52 10° 323° (NW) 2,287 5.9 -33.6°
Sets 18:01:20 0° 332° (NNW) 3,211 6.6 -34.2°
